sat.trackr.live / text

‹ back to catalog

STARLINK-32712

NORAD 62433 · 2024-251B

PAYLOAD ACTIVE UNKNOWN

§ Identity

Operator
Country
US
Launch date
2024-12-29
Launch site
AFWTR
Launch vehicle
Mass (kg)
RCS (m²)

Purposes: comms

External: N2YO · Heavens-Above · Gunter

§ Orbital elements

Epoch: 2026-09-21T21:33:23.634144Z

Period
93.85 min
Inclination
53.1585°
Eccentricity
0.0001212
Mean motion
15.34389036 rev/d
Perigee alt
461.9 km
Apogee alt
463.6 km
Semi-major
6,840.9 km
B*
4.0304e-4
RAAN
142.8848°
Arg perigee
97.0251°
Mean anomaly
263.0889°
Rev number
9,800

§ Raw data

STARLINK-327121 62433U 24251B   26264.89819021  .00013260  00000+0  40304-3 0  99952 62433  53.1585 142.8848 0001212  97.0251 263.0889 15.34389036 98007

JSON: /api/v1/satellites/62433 · /tle

For live sub-satellite position, see the globe view (requires WebGL).

§ Visibility from observer

Set your observer location to see the next 7 days of passes ≥ 10°. The values pass through the URL so the page stays shareable.

No JS? Fill the form by hand. The geolocation button needs JavaScript.